Погода в Томске

Погода в Томске : погода сейчас, прогноз погоды и архив. Всё, что Вы хотите узнать о погоде в Томске!

Хотите узнать прогноз погоды в Томске? Тогда Вам сюда: Погода в Томске

Поиск расширенной информации на нашем сайте:

Полезная информация:

Другие новости

Новости СМИ2

Главная страница сайта

Новости сайта

03.07.2017

Напоминаем, что на нашем специализированном сайте Метеоцентр.Азия вы можете получить высокодетализированные автоматические прогнозы погоды по пунктам России, СНГ и мира в авиационном формате (включающие направление и скорость ветра, видимость, явления погоды, количество и форму облачности, нижнюю и верхнюю границу облачности).

Рекомендуем:

Погода в Томске - сегодня

Время (UTC), дата Ветер
(°,м/с) 
Видим.   Явления Облачность Т
(°С)
Тd
(°С)
f(%) Тe
(°С)
Pmin
(гПа)
dP
(гПа)
Po
(мм)
O2
(г/м3)
Тmin Tmax R s Состояние
почвы
09 17.10.19 230 (ЮЗ) 20000 м  {дождь}  10/10 210 м 
[St]
+6 +5.1 94 +7  1002.1  0.6  739  290           
12 17.10.19 330 (СЗ) 20000 м  в посл. час ливневой дождь  10/10 270 м кучево-дожд. 
[Cb cap]
+4.5 +3.1 91 +5  1004.4  2.2  741  293    +6.5     
15 17.10.19 260 (З) 20000 м  {ливн. осадки}  10/10 600 м кучево-дожд. 
[Cb cap]
+3.9 +3 94 +5  1006.2  1.8  742  294           
18 17.10.19 200 (Ю) 20000 м  {ливн. осадки}  10/10 240 м 
[St]
+3.5 +2.9 96 +4  1008  1.7  743  295           
21 17.10.19 230 (ЮЗ) 20000 м  слаб. дождь  10/10 300 м 
[St]
+2.2 +1.7 96 +3  1010.5  2.3  745  297           
00 18.10.19 270 (З) 20000 м  слаб. снег{дождь}  10/10 300 м 
[St]
-0.4 -1.4 93 1013.7  747  302  -0.4       
03 18.10.19 230 (ЮЗ) 20000 м  в посл. час ливневой снег  10/10 570 м 
[Sc]
-1 -1.9 94 1016  2.2  749  303  -1.2         
06 18.10.19 210 (ЮЗ) 20000 м  {ливн. осадки, снег}  10/10 600 м 
[Sc]
-0.5 -2.1 89 1017.6  1.6  750  303           
09 18.10.19 200 (Ю) 20000 м  в посл. час ливневой снег  10/10 720 м кучево-дожд. 
[Cb cap]
-1.2 -4 81 -1  1018.7  1.1  751  304           
12 18.10.19 220 (ЮЗ) 20000 м  слаб. ливневой снег  10/10 700 м кучево-дожд. 
[Cb cap]
-1.9 -3.3 90 -1  1019.5  0.7  751  305    -0.4     
15 18.10.19 240 (ЮЗ) 20000 м  {ливн. осадки}  10/10 600 м 
[Sc]
-3.6 -6.7 79 -3  1020.3  0.7  752  308           
18 18.10.19 тихо ()   20000 м  {ливн. осадки}  10/0 средняя 
[As op]
-3.9 -7.7 75 -4  1019.7  -0.6  751  308           
21 18.10.19 тихо ()   20000 м    ясно 
-6 -8.5 82 -6  1018.9  -1  751  310           
00 19.10.19 тихо ()   20000 м    5/5 600 м 
[Sc]
-6.7 -7.4 95 -7  1019.1  0.2  751  311  -6.7    0.2  <0.5  сухой снег
50-90% 
03 19.10.19 310 (СЗ) 20000 м  слаб. ливневой снег  10/10 600 м кучево-дожд. 
[Cb cap]
-4.1 -6.3 85 -4  1019.9  752  308           
06 19.10.19 320 (СЗ) 20000 м  в посл. час ливневой снег  10/8 600 м кучево-дожд., средняя 
[Cb cap|Ac und]
-3.3 -8.1 69 -3  1021.2  1.3  753  308           
09 19.10.19 310 (СЗ) 20000 м  {ливн. осадки}  10/6 600 м кучево-дожд., средняя 
[Cb cap|Ac und]
-3.1 -11.5 52 -3  1022.5  1.3  754  308           
12 19.10.19 тихо ()   20000 м  {ливн. осадки}  10/4 600 м средняя 
[Sc|As op]
-3.9 -8.3 71 -4  1023.8  1.2  754  309    -3.1  0.0     
15 19.10.19 360 (С) 10 км  слаб. ливневой снег  10/10 300 м кучево-дожд. 
[Cb cap]
-4.5 -6.8 84 -4  1025.1  1.3  755  310           
18 19.10.19 010 (С) 20000 м  {ливн. осадки}  10/4 600 м средняя 
[Sc|As op]
-5.1 -11.5 61 -5  1025.9  0.7  756  311           
21 19.10.19 тихо ()   20000 м    8/0 средняя 
[Ac As]
-5.5 -11.7 62 -6  1026.3  0.3  756  312           
00 20.10.19 030 (СВ) 20000 м    ясно 
-8.4 -12.7 71 -8  1027.5  757  316  -8.4    0.3  равномерный
сухой снег
100% 
03 20.10.19 040 (СВ) 20000 м    9/0 средняя 
[Ac trans]
-6.6 -12.5 63 -6  1028.5  1.1  758  314  -9         
06 20.10.19 030 (СВ) 20000 м    ясно 
-3.1 -13.6 44 -3  1028.4  0.2  758  310           
09 20.10.19 010 (С) 20000 м    3/3 1000 м 
[Sc]
-2.6 -13.3 44 -4  1028.3  -0.1  758  309           
Время (UTC), дата Ветер
(°,м/с) 
Видим.   Явления Облачность Т
(°С)
Тd
(°С)
f(%) Тe
(°С)
Pmin
(гПа)
dP
(гПа)
Po
(мм)
O2
(г/м3)
Тmin Tmax R s Состояние
почвы

Для получения пояснительной информации подведите курсор к названию столбца.

ПОГОДА в Томске - архив

Всё, что Вы хотите узнать о погоде в Томске - удобно и подробно!

Выберите нужную дату (начиная с 1 января 2018* года) и нажмите кнопку "Найти".
Будут отображены архивные сводки погоды по пункту Томск, начиная с указанной даты.


Отображать данные в формате CSV (для использования в таблицах Excel)


Внимание! Наш архив погоды предназначен исключительно для личного некоммерческого использования в познавательных целях. Если Вам необходимы официальные справки о состоянии погоды (для производственных, юридических, коммерческих и т.п. целей), обращайтесь в органы Росгидромета.

*Примечание: данная дата относится к архиву по метеостанциям СССР (Россия, СНГ, Балтия).
Архив по метеостанциям Зарубежной Европы и Азии (кроме Китая) хранится 10 дней, по другим регионам земного шара (Китай, Африка, Америка, Австралия, Океания) - 1 день.

Томск - район местоположения метеостанции


Название, широта, долгота, высота метеостанции:
Томск 56.5°ш. 84.9°д. 139 м над ур. моря [Российская Федерация]

Дополнительная информация

В oтличие oт бoльшинства пoгoдных сайтoв мы публикуем пoдрoбную метеoинфoрмацию в детальнoм прoфессиoнальнoм фoрмате.

Характеристики температуры и влажнoсти вoздуха измеряются на высoте 2 м в тени вдали oт зданий и деревьев.
Скoрoсть ветра измеряется на высoте 10 м (на урoвне рoста челoвека скoрoсть ветра ниже в 1.5-2 раза). Если метеoстанция нахoдится в гoрoде или в лесу, тo скoрoсть ветра занижена на 2-4 м/с пo сравнению с oткрытым местoм. Скoрoсть ветра над акватoриями крупных рек и oзёр, а также на вершинах хoлмoв на 2-5 м/с выше, чем в oбычных услoвиях.
Атмoсфернoе давление в разных тoчках местнoсти мoжет значительнo oтличаться oт давления на метеoстанции, в зависимoсти oт услoвий рельефа (при пoдъёме на 10 м давление пoнижается примернo на 1 мм рт.ст.).